Date String (YYYY-MM-DD hh:mm:ss) UTC,Instrument flags,Ambient pressure (hPa),Sample flow (lpm),Bypass flow (lpm),Sample temperature (°C),Ambient temperature (°C),ASC tube jacket temperature (°C),LED temperature (°C),Box temperature (°C),Sample RH (%),Span deviation,Mass concentration (μg/m³),Mass concentration (μg/m³),Mass concentration (μg/m³)
DateTimeUTC,F1_M11,P_M11,Q1_M11,Q2_M11,T1_M11,T2_M11,T3_M11,T4_M11,T5_M11,U1_M11,ZSPAN_M11,X0_M11,X2_M11,X1_M11
2021-12-26 18:00:00,,0808.5,5.00,0.00,22.1,21.4,00.0,31.2,23.8,13.2,0000.0,0007.47,0000.81,0000.39
2021-12-26 18:01:00,,0808.5,5.01,0.00,22.1,21.4,00.0,31.2,23.8,13.1,0000.0,0007.44,0000.81,0000.39
2021-12-26 18:02:00,,0808.4,4.99,0.00,22.1,21.4,00.0,31.1,23.7,13.3,0000.0,0008.02,0000.84,0000.39
2021-12-26 18:03:00,,0808.5,5.00,0.00,22.1,21.4,00.0,31.1,23.8,13.4,0000.0,0008.09,0000.88,0000.40
2021-12-26 18:04:00,,0808.5,4.99,0.00,22.1,21.4,00.0,31.1,23.7,13.4,0000.0,0008.06,0000.88,0000.40
2021-12-26 18:05:00,,0808.6,5.00,0.00,22.1,21.4,00.0,31.1,23.7,13.5,0000.0,0008.05,0000.89,0000.41
2021-12-26 18:06:00,,0808.6,5.00,0.00,22.0,21.4,00.0,31.1,23.8,13.5,0000.0,0007.94,0000.85,0000.40
2021-12-26 18:07:00,,0808.6,5.00,0.00,22.0,21.4,00.0,31.1,23.8,13.5,0000.0,0005.12,0000.83,0000.40
2021-12-26 18:08:00,,0808.5,5.00,0.00,22.0,21.4,00.0,31.1,23.8,13.5,0000.0,0004.24,0000.88,0000.40
2021-12-26 18:09:00,,0808.4,5.00,0.00,22.0,21.4,00.0,31.1,23.7,13.6,0000.0,0004.54,0000.89,0000.41
2021-12-26 18:10:00,,0808.5,5.00,0.00,22.0,21.3,00.0,31.1,23.7,13.6,0000.0,0003.60,0000.90,0000.41
2021-12-26 18:11:00,,0808.5,5.00,0.00,22.0,21.3,00.0,31.1,23.6,13.2,0000.0,0003.25,0000.90,0000.42
2021-12-26 18:12:00,,0808.3,5.01,0.00,21.9,21.3,00.0,31.1,23.6,11.9,0000.0,0003.30,0000.89,0000.42
2021-12-26 18:13:00,,0808.3,5.00,0.00,21.9,21.3,00.0,31.0,23.6,10.8,0000.0,0002.17,0000.83,0000.40
2021-12-26 18:14:00,,0808.2,5.00,0.00,21.9,21.2,00.0,31.0,23.6,10.6,0000.0,0002.04,0000.78,0000.39
2021-12-26 18:15:00,,0808.2,5.01,0.00,21.9,21.2,00.0,31.0,23.6,10.4,0000.0,0002.09,0000.77,0000.38
2021-12-26 18:16:00,,0808.2,5.01,0.00,21.9,21.3,00.0,31.0,23.6,10.4,0000.0,0002.22,0000.78,0000.36
2021-12-26 18:17:00,,0808.2,5.00,0.00,21.9,21.3,00.0,31.0,23.5,10.3,0000.0,0002.50,0000.76,0000.34
2021-12-26 18:18:00,,0808.3,5.00,0.00,21.9,21.3,00.0,31.0,23.6,10.2,0000.0,0003.26,0000.74,0000.31
2021-12-26 18:19:00,,0808.2,5.01,0.00,21.9,21.3,00.0,31.0,23.6,10.2,0000.0,0003.16,0000.69,0000.29
2021-12-26 18:20:00,,0808.1,4.99,0.00,22.0,21.3,00.0,31.0,23.7,10.5,0000.0,0002.71,0000.64,0000.26
2021-12-26 18:21:00,,0808.1,5.00,0.00,22.0,21.3,00.0,31.0,23.7,10.4,0000.0,0002.91,0000.59,0000.23
2021-12-26 18:22:00,,0808.1,4.99,0.00,22.0,21.3,00.0,31.0,23.7,10.5,0000.0,0003.59,0000.52,0000.22
2021-12-26 18:23:00,,0808.1,4.99,0.00,22.0,21.3,00.0,31.0,23.7,10.7,0000.0,0003.59,0000.48,0000.20
2021-12-26 18:24:00,,0808.0,5.01,0.00,22.0,21.3,00.0,31.0,23.7,10.8,0000.0,0004.44,0000.49,0000.19
2021-12-26 18:25:00,,0808.0,5.01,0.00,22.0,21.3,00.0,31.0,23.6,11.0,0000.0,0005.06,0000.48,0000.18
2021-12-26 18:26:00,,0808.1,4.99,0.00,22.0,21.3,00.0,31.0,23.6,11.1,0000.0,0005.05,0000.46,0000.17
2021-12-26 18:27:00,,0808.0,5.02,0.00,22.0,21.2,00.0,31.0,23.6,11.1,0000.0,0004.94,0000.44,0000.17
2021-12-26 18:28:00,,0808.0,4.99,0.00,22.0,21.2,00.0,31.0,23.6,11.2,0000.0,0004.71,0000.46,0000.18
2021-12-26 18:29:00,,0807.9,5.00,0.00,22.0,21.2,00.0,31.0,23.7,11.2,0000.0,0003.76,0000.44,0000.18
2021-12-26 18:30:00,,0807.9,5.00,0.00,22.0,21.3,00.0,31.0,23.7,11.3,0000.0,0003.73,0000.44,0000.18
2021-12-26 18:31:00,,0807.9,5.00,0.00,22.0,21.2,00.0,31.0,23.7,11.3,0000.0,0005.11,0000.43,0000.18
2021-12-26 18:32:00,,0807.7,5.00,0.00,22.1,21.2,00.0,31.0,23.7,11.2,0000.0,0004.74,0000.42,0000.18
2021-12-26 18:33:00,,0807.7,5.00,0.00,22.1,21.2,00.0,31.0,23.7,11.4,0000.0,0003.87,0000.42,0000.18
2021-12-26 18:34:00,,0807.7,4.99,0.00,22.1,21.2,00.0,31.0,23.7,11.5,0000.0,0004.72,0000.41,0000.19
2021-12-26 18:35:00,,0807.7,5.00,0.00,22.0,21.2,00.0,31.0,23.7,11.3,0000.0,0003.80,0000.41,0000.19
2021-12-26 18:36:00,,0807.7,5.00,0.00,22.1,21.2,00.0,31.0,23.7,11.2,0000.0,0003.36,0000.41,0000.19
2021-12-26 18:37:00,,0807.6,5.00,0.00,22.1,21.2,00.0,31.1,23.7,11.0,0000.0,0003.84,0000.44,0000.20
2021-12-26 18:38:00,,0807.6,5.01,0.00,22.0,21.2,00.0,31.1,23.7,11.1,0000.0,0004.38,0000.44,0000.21
2021-12-26 18:39:00,,0807.7,4.98,0.00,22.1,21.2,00.0,31.1,23.6,10.8,0000.0,0004.50,0000.45,0000.21
2021-12-26 18:40:00,,0807.6,5.00,0.00,22.0,21.1,00.0,31.1,23.6,10.8,0000.0,0004.55,0000.46,0000.21
2021-12-26 18:41:00,,0807.5,5.01,0.00,22.0,21.1,00.0,31.1,23.6,10.8,0000.0,0004.46,0000.45,0000.21
2021-12-26 18:42:00,,0807.5,5.02,0.00,22.0,21.1,00.0,31.1,23.6,10.7,0000.0,0003.13,0000.45,0000.21
2021-12-26 18:43:00,,0807.5,5.01,0.00,22.1,21.1,00.0,31.1,23.7,10.7,0000.0,0003.08,0000.44,0000.22
2021-12-26 18:44:00,,0807.6,4.99,0.00,22.1,21.1,00.0,31.1,23.7,10.8,0000.0,0003.05,0000.42,0000.22
2021-12-26 18:45:00,,0807.6,4.99,0.00,22.1,21.2,00.0,31.1,23.7,10.8,0000.0,0002.43,0000.43,0000.22
2021-12-26 18:46:00,,0807.6,5.01,0.00,22.1,21.2,00.0,31.1,23.7,10.9,0000.0,0002.73,0000.43,0000.22
2021-12-26 18:47:00,,0807.6,4.99,0.00,22.1,21.1,00.0,31.1,23.7,10.8,0000.0,0002.69,0000.41,0000.22
2021-12-26 18:48:00,,0807.6,5.00,0.00,22.1,21.2,00.0,31.1,23.7,10.9,0000.0,0002.23,0000.42,0000.23
2021-12-26 18:49:00,,0807.6,5.00,0.00,22.1,21.1,00.0,31.1,23.8,11.0,0000.0,0001.78,0000.43,0000.23
2021-12-26 18:50:00,,0807.5,4.99,0.00,22.1,21.2,00.0,31.1,23.8,11.1,0000.0,0001.68,0000.43,0000.22
2021-12-26 18:51:00,,0807.4,5.00,0.00,22.2,21.3,00.0,31.1,23.9,11.2,0000.0,0001.71,0000.46,0000.23
2021-12-26 18:52:00,,0807.5,5.00,0.00,22.2,21.3,00.0,31.1,23.9,11.3,0000.0,0001.74,0000.47,0000.24
2021-12-26 18:53:00,,0807.5,5.00,0.00,22.2,21.4,00.0,31.1,23.9,11.1,0000.0,0001.78,0000.48,0000.24
2021-12-26 18:54:00,,0807.5,5.01,0.00,22.2,21.4,00.0,31.1,24.0,10.8,0000.0,0001.79,0000.48,0000.24
2021-12-26 18:55:00,,0807.5,5.00,0.00,22.2,21.5,00.0,31.1,24.0,10.6,0000.0,0002.53,0000.51,0000.24
2021-12-26 18:56:00,,0807.6,5.00,0.00,22.2,21.5,00.0,31.2,23.9,10.8,0000.0,0002.67,0000.50,0000.25
2021-12-26 18:57:00,,0807.6,5.00,0.00,22.2,21.5,00.0,31.2,24.0,10.9,0000.0,0002.30,0000.51,0000.24
2021-12-26 18:58:00,,0807.6,5.00,0.00,22.2,21.4,00.0,31.2,24.0,10.8,0000.0,0002.37,0000.54,0000.24
2021-12-26 18:59:00,,0807.6,5.00,0.00,22.3,21.5,00.0,31.2,24.0,10.7,0000.0,0002.37,0000.54,0000.23
